Pellston, MI

4:05 PM EDT on May 23, 2017 (GMT -0400)
Pellston Regional Airport Of Emmet County

Weather History for KPLN - May, 2013

Change the Weather History Date:

Thursday, May 23, 2013

  Actual Average Record
Temperature  
Mean Temperature 48 °F -  
Max Temperature 53 °F 69 °F 89 °F (1980)
Min Temperature 42 °F 41 °F 23 °F (1958)
Degree Days  
Heating Degree Days 18    
Moisture  
Dew Point 40 °F    
Average Humidity 78    
Maximum Humidity 94    
Minimum Humidity 45    
Precipitation  
Precipitation 0.58 in - - ()
Sea Level Pressure  
Sea Level Pressure 29.98 in    
Wind  
Wind Speed 15 mph (North)    
Max Wind Speed 20 mph    
Max Gust Speed 33 mph    
Visibility 9 miles    
Events Rain    
Averages and records for this station are not official NWS values.
T = Trace of Precipitation, MM = Missing Value Source: NWS Daily Summary

Daily Weather History Graph

Daily Weather History Graph

Search for Another Location

Airport or City:

Trip Planner

Search our weather history database for the weather conditions in past years. The results will help you decide how hot, cold, wet, or windy it might be!

Date:

Astronomy

May. 23, 2013 Rise Set
Actual Time 5:59 AM EDT 9:12 PM EDT
Civil Twilight 5:24 AM EDT 9:48 PM EDT
Nautical Twilight 4:37 AM EDT 10:35 PM EDT
Astronomical Twilight 3:40 AM EDT 11:32 PM EDT
Moon 7:40 PM EDT 4:49 AM EDT
Length of Visible Light 16h 24m
Length of Day
15h 12m
Waxing Gibbous, 97% of the Moon is Illuminated
May 23
Waxing Gibbous
May 25
Full
May 31
Last Quarter
Jun 8
New
Jun 16
First Quarter

Hourly Weather History & Observations

Time (EDT) Temp. Windchill Dew Point Humidity Pressure Visibility Wind Dir Wind Speed Gust Speed Precip Events Conditions
12:54 AM 52.0 °F - 50.0 °F 93% 29.79 in 7.0 mi North 13.8 mph - 0.13 in Rain Light Rain
1:28 AM 51.8 °F - 50.0 °F 94% 29.78 in 8.0 mi NNE 12.7 mph - 0.03 in Rain Light Rain
1:48 AM 53.6 °F - 50.0 °F 88% 29.78 in 7.0 mi NNE 15.0 mph 20.7 mph 0.04 in Rain Light Rain
1:54 AM 53.1 °F - 50.0 °F 89% 29.79 in 7.0 mi NNE 13.8 mph - 0.04 in Rain Light Rain
1:56 AM 53.6 °F - 50.0 °F 88% 29.79 in 7.0 mi NNE 13.8 mph - 0.00 in Rain Light Rain
2:08 AM 51.8 °F - 50.0 °F 94% 29.79 in 7.0 mi North 15.0 mph - 0.01 in Rain Light Rain
2:52 AM 50.0 °F - 46.4 °F 87% 29.80 in 6.0 mi NNE 19.6 mph 33.4 mph 0.04 in Rain Light Rain
2:54 AM 50.0 °F - 46.9 °F 89% 29.81 in 6.0 mi NNE 19.6 mph 33.4 mph 0.04 in Rain Light Rain
3:06 AM 50.0 °F - 46.4 °F 87% 29.81 in 7.0 mi NNE 19.6 mph 29.9 mph 0.01 in Rain Light Rain
3:35 AM 48.2 °F - 46.4 °F 93% 29.82 in 7.0 mi NNE 17.3 mph 26.5 mph 0.05 in Rain Light Rain
3:52 AM 48.2 °F - 46.4 °F 93% 29.82 in 5.0 mi NNE 18.4 mph 26.5 mph 0.08 in Rain Rain
3:54 AM 48.9 °F - 46.0 °F 90% 29.83 in 4.0 mi NNE 16.1 mph 26.5 mph 0.09 in Rain Rain
4:38 AM 46.4 °F 41.1 °F 44.6 °F 93% 29.83 in 6.0 mi NNE 11.5 mph 23.0 mph 0.08 in Rain Rain
4:54 AM 46.9 °F - 45.0 °F 93% 29.85 in 6.0 mi North 16.1 mph 21.9 mph 0.10 in Rain Light Rain
5:54 AM 45.0 °F 38.5 °F 41.0 °F 86% 29.89 in 10.0 mi NNE 13.8 mph 24.2 mph 0.02 in Rain Light Rain
6:04 AM 44.6 °F 37.8 °F 41.0 °F 87% 29.88 in 10.0 mi North 15.0 mph 21.9 mph 0.00 in Rain Light Rain
6:51 AM 42.8 °F 36.6 °F 39.2 °F 87% 29.91 in 10.0 mi NNE 11.5 mph - 0.02 in Rain Light Rain
6:54 AM 43.0 °F 36.4 °F 39.9 °F 89% 29.92 in 10.0 mi NNE 12.7 mph - 0.02 in Rain Light Rain
7:28 AM 42.8 °F 37.0 °F 39.2 °F 87% 29.92 in 10.0 mi North 10.4 mph - 0.02 in Rain Light Rain
7:54 AM 43.0 °F 36.0 °F 39.9 °F 89% 29.96 in 6.0 mi NNE 13.8 mph 19.6 mph 0.06 in Rain Rain
8:51 AM 42.8 °F 35.8 °F 39.2 °F 87% 29.98 in 10.0 mi North 13.8 mph - 0.05 in Rain Light Rain
8:54 AM 42.1 °F 33.6 °F 39.0 °F 89% 30.00 in 10.0 mi North 18.4 mph 23.0 mph 0.05 in Rain Light Rain
9:02 AM 42.8 °F 34.8 °F 37.4 °F 81% 29.99 in 10.0 mi North 17.3 mph 23.0 mph 0.00 in Rain Light Rain
9:28 AM 42.8 °F 36.6 °F 37.4 °F 81% 30.00 in 10.0 mi NNE 11.5 mph - 0.01 in Rain Light Rain
9:44 AM 42.8 °F 37.5 °F 39.2 °F 87% 30.00 in 10.0 mi North 9.2 mph - 0.03 in Rain Light Rain
9:52 AM 42.8 °F 35.4 °F 39.2 °F 87% 30.01 in 10.0 mi North 15.0 mph 19.6 mph 0.03 in Rain Light Rain
9:54 AM 42.1 °F 34.5 °F 37.9 °F 85% 30.03 in 10.0 mi North 15.0 mph 19.6 mph 0.03 in Rain Light Rain
10:01 AM 42.8 °F 35.4 °F 37.4 °F 81% 30.02 in 10.0 mi North 15.0 mph - 0.00 in   Overcast
10:08 AM 42.8 °F 36.6 °F 37.4 °F 81% 30.02 in 10.0 mi North 11.5 mph 21.9 mph 0.00 in   Overcast
10:16 AM 42.8 °F 36.2 °F 37.4 °F 81% 30.02 in 10.0 mi North 12.7 mph - 0.00 in   Overcast
10:54 AM 42.1 °F 34.5 °F 37.0 °F 82% 30.06 in 10.0 mi North 15.0 mph - 0.00 in   Overcast
11:06 AM 42.8 °F 35.8 °F 35.6 °F 76% 30.05 in 10.0 mi NNW 13.8 mph - N/A   Overcast
11:54 AM 45.0 °F 38.2 °F 37.0 °F 74% 30.08 in 10.0 mi North 15.0 mph - N/A   Overcast
12:31 PM 46.4 °F 39.5 °F 33.8 °F 62% 30.07 in 10.0 mi North 17.3 mph - N/A   Scattered Clouds
12:54 PM 46.9 °F - 30.9 °F 54% 30.09 in 10.0 mi North 13.8 mph 24.2 mph N/A   Clear
1:54 PM 48.0 °F - 32.0 °F 54% 30.10 in 10.0 mi NNW 12.7 mph - N/A   Clear
2:54 PM 50.0 °F - 32.0 °F 50% 30.11 in 10.0 mi North 15.0 mph 21.9 mph N/A   Clear
3:54 PM 51.1 °F - 32.0 °F 48% 30.12 in 10.0 mi NNW 12.7 mph 21.9 mph N/A   Clear
4:54 PM 53.1 °F - 32.0 °F 45% 30.13 in 10.0 mi NNW 16.1 mph - N/A   Clear
5:54 PM 52.0 °F - 32.0 °F 47% 30.14 in 10.0 mi North 16.1 mph - N/A   Clear
6:54 PM 51.1 °F - 30.9 °F 46% 30.16 in 10.0 mi NNW 17.3 mph 21.9 mph N/A   Clear
7:54 PM 48.9 °F - 30.9 °F 50% 30.19 in 10.0 mi NNW 12.7 mph 23.0 mph N/A   Clear
8:54 PM 46.0 °F 39.6 °F 30.9 °F 56% 30.21 in 10.0 mi NNW 15.0 mph - N/A   Clear
9:54 PM 43.0 °F 37.7 °F 30.9 °F 62% 30.23 in 10.0 mi NNW 9.2 mph - N/A   Clear
10:54 PM 42.1 °F 36.6 °F 30.0 °F 62% 30.26 in 10.0 mi NNW 9.2 mph - N/A   Clear
11:54 PM - - - N/A% 30.25 in - North - - N/A   Unknown